This is the latest recevied weather packets stored in our database for station/object KC9DRE. If no packets are shown the sender has not sent any weather packets the latest 10 day(s).
| Time | Temp. | Humidity | Pressure | Rain* | Wind** | Luminosity | Snow |
|---|---|---|---|---|---|---|---|
| 1777047749 | 27.22° C | 52% | 1010.3 hPa | 0 mm | - | 766 W/m² | - |
| 1777047445 | 27.78° C | 49% | 1010 hPa | 0 mm | - | 778 W/m² | - |
| 1777047140 | 27.22° C | 53% | 1010.2 hPa | 0 mm | - | 761 W/m² | - |
| 1777046838 | 26.67° C | 50% | 1010.2 hPa | 0 mm | - | 753 W/m² | - |
| 1777046533 | 26.67° C | 50% | 1010.1 hPa | 0 mm | - | 708 W/m² | - |
| 1777046229 | 26.67° C | 51% | 1010.1 hPa | 0 mm | - | 717 W/m² | - |
| 1777045924 | 26.11° C | 51% | 1010 hPa | 0 mm | - | 720 W/m² | - |
| 1777045621 | 25.56° C | 52% | 1010.1 hPa | 0 mm | - | 705 W/m² | - |
| 1777045317 | 25° C | 52% | 1010.1 hPa | 0 mm | - | 598 W/m² | - |
| 1777045013 | 25° C | 53% | 1010.3 hPa | 0 mm | - | 604 W/m² | - |
| 1777044405 | 25.56° C | 51% | 1010.1 hPa | 0 mm | - | 511 W/m² | - |
| 1777044105 | 25° C | 51% | 1010.2 hPa | 0 mm | - | 621 W/m² | - |
| 1777043802 | 24.44° C | 53% | 1010.1 hPa | 0 mm | - | 645 W/m² | - |
| 1777043499 | 23.89° C | 55% | 1010.3 hPa | 0 mm | - | 665 W/m² | - |
| 1777043196 | 23.89° C | 56% | 1010.3 hPa | 0 mm | - | 527 W/m² | - |
| 1777042891 | 23.89° C | 55% | 1010.1 hPa | 0 mm | - | 342 W/m² | - |
| 1777042587 | 23.89° C | 55% | 1010.3 hPa | 0 mm | - | 519 W/m² | - |
| 1777042282 | 23.33° C | 58% | 1010.5 hPa | 0 mm | - | 467 W/m² | - |
| 1777041978 | 22.78° C | 57% | 1010.5 hPa | 0 mm | - | 413 W/m² | - |
| 1777041675 | 22.78° C | 58% | 1010.7 hPa | 0 mm | - | 391 W/m² | - |
| 1777041371 | 22.78° C | 60% | 1010.5 hPa | 0 mm | - | 471 W/m² | - |
| 1777041068 | 22.22° C | 58% | 1010.6 hPa | 0 mm | - | 447 W/m² | - |
| 1777040764 | 22.22° C | 57% | 1010.7 hPa | 0 mm | - | 315 W/m² | - |
| 1777040463 | 22.22° C | 58% | 1010.6 hPa | 0 mm | - | 421 W/m² | - |
| 1777040159 | 22.22° C | 58% | 1010.8 hPa | 0 mm | - | 344 W/m² | - |
* Rain latest hour (hover to see other rain measurements)
** Current wind speed in m/s (hover to see current wind gust speed)